Location: Boitzum
(52.1496°N, 9.6943°E)
Time: 00:23:03
(UTC+00:00)

Cosmos 1484 Rocket - Pass Details

Date: 13 January 2026
Orbit: 439 x 466 km, 97.6° (Epoch: 17 February)

Event Time Altitude Azimuth Distance (km) Brightness Sun altitude
Rises 06:20:54 0° 3° (N) 2,450 5.9 -9.4°
Reaches altitude 10° 06:23:11 10° 349° (N) 1,577 4.8 -9.0°
Maximum altitude 06:25:54 23° 295° (WNW) 1,002 3.5 -8.7°
Drops below altitude 10° 06:28:37 10° 241° (WSW) 1,578 4.8 -8.3°
Sets 06:30:54 0° 227° (SW) 2,451 5.9 -8.0°
